Tracking 27428 objects as of 31-May-2023
HD Live streaming from Space Station
objects crossing your sky now

GRIFEX

Track GRIFEX now!
10-day predictions
GRIFEX is classified as:


NORAD ID: 40379
Int'l Code: 2015-003D
Perigee: 398.1 km
Apogee: 509.2 km
Inclination: 99.1 °
Period: 93.5 minutes
Semi major axis: 6824 km
RCS: Unknown
Launch date: January 31, 2015
Source: United States (US)
Launch site: AIR FORCE WESTERN TEST RANGE (AFWTR)

Uplink (MHz):
Downlink (MHz): 437.480
Beacon (MHz):
Mode: 9k6/19k2bps GMSK
Call sign: KD8SPS
Status: Inactive

Your satellite tracking list
Your tracking list is empty




NASA's NSSDC Master Catalog

Two Line Element Set (TLE):
1 40379U 15003D   23151.08735521  .00035189  00000-0  78823-3 0  9992
2 40379  99.0780  83.7342 0081377 331.5035  28.1768 15.39866053460751
Source of the keplerian elements: Caltech